Weather History for Penn Yan, NY

Change the Weather History Date:

Friday, September 20, 2013

  Actual Average (KITH) Record (KITH)
Temperature  
Mean Temperature 68 °F -  
Max Temperature 80 °F 68 °F 89 °F (1932)
Min Temperature 57 °F 48 °F 29 °F (1929)
Cooling Degree Days 3    
Growing Degree Days 18 (Base 50)    
Moisture  
Dew Point 57 °F    
Average Humidity 74    
Maximum Humidity 94    
Minimum Humidity 47    
Precipitation  
Precipitation 0.01 in - - ()
Sea Level Pressure  
Sea Level Pressure 29.98 in    
Wind  
Wind Speed 8 mph (SSW)    
Max Wind Speed 16 mph    
Max Gust Speed 22 mph    
Visibility 5 miles    
Events      
Averages and records for this station are not official NWS values.
T = Trace of Precipitation, MM = Missing Value Source: NWS Daily Summary

Daily Weather History Graph

Daily Weather History Graph

Search for Another Location

Airport:

Trip Planner

Search our weather history database for the weather conditions in past years. The results will help you decide how hot, cold, wet, or windy it might be!

Date:

Astronomy

Sep. 20, 2013 Rise Set
Actual Time 6:53 AM EDT 7:08 PM EDT
Civil Twilight 6:25 AM EDT 7:36 PM EDT
Nautical Twilight 5:52 AM EDT 8:09 PM EDT
Astronomical Twilight 5:18 AM EDT 8:43 PM EDT
Moon 7:38 PM EDT (9/20) 8:08 AM EDT (9/20)
Length of Visible Light 13h 11m
Length of Day
12h 15m
Full, 98% of the Moon is Illuminated
Sep 20
Full
Sep 26
Last Quarter
Oct 4
New
Oct 11
First Quarter
Oct 18
Full

Hourly Weather History & Observations

Time (EDT) Temp. Dew Point Humidity Pressure Visibility Wind Dir Wind Speed Gust Speed Precip Events Conditions
12:53 AM 59.0 °F 55.9 °F 90% 30.04 in 7.0 mi SW 5.8 mph - N/A   Clear
1:53 AM 59.0 °F 55.9 °F 90% 30.05 in 7.0 mi SSW 5.8 mph - N/A   Clear
2:53 AM 57.9 °F 55.9 °F 93% 30.04 in 5.0 mi SW 5.8 mph - N/A   Clear
3:53 AM 57.9 °F 55.9 °F 93% 30.04 in 6.0 mi SSW 6.9 mph - N/A   Clear
4:53 AM 57.9 °F 55.9 °F 93% 30.04 in 6.0 mi SSW 8.1 mph - N/A   Clear
5:53 AM 57.0 °F 55.0 °F 93% 30.03 in 4.0 mi WSW 4.6 mph - N/A   Clear
6:53 AM 57.0 °F 55.0 °F 93% 30.04 in 2.5 mi SW 6.9 mph - N/A   Clear
7:02 AM 57.2 °F 55.4 °F 94% 30.04 in 2.0 mi SSW 6.9 mph - N/A   Clear
7:16 AM 57.2 °F 55.4 °F 94% 30.04 in 1.8 mi SSW 6.9 mph - 0.01 in   Clear
7:26 AM 57.2 °F 55.4 °F 94% 30.04 in 2.0 mi SSW 8.1 mph - 0.01 in   Clear
7:49 AM 57.2 °F 55.4 °F 94% 30.04 in 2.5 mi SW 6.9 mph - 0.01 in   Clear
7:53 AM 57.9 °F 55.9 °F 93% 30.05 in 2.0 mi SW 8.1 mph - 0.01 in   Clear
8:01 AM 57.2 °F 55.4 °F 94% 30.05 in 1.8 mi SW 8.1 mph - N/A   Clear
8:05 AM 59.0 °F 55.4 °F 88% 30.05 in 2.5 mi SW 8.1 mph - N/A   Clear
8:18 AM 60.8 °F 55.4 °F 82% 30.05 in 3.0 mi SSW 6.9 mph - N/A   Clear
8:53 AM 61.0 °F 57.0 °F 87% 30.03 in 3.0 mi SSW 6.9 mph - N/A   Clear
9:53 AM 66.0 °F 57.9 °F 75% 30.03 in 4.0 mi SSW 8.1 mph - N/A   Haze
10:53 AM 70.0 °F 57.9 °F 65% 30.01 in 4.0 mi SSW 8.1 mph - N/A   Haze
11:53 AM 73.0 °F 57.9 °F 59% 30.00 in 4.0 mi South 11.5 mph 18.4 mph N/A   Haze
12:40 PM 75.2 °F 59.0 °F 57% 29.99 in 2.0 mi SW 10.4 mph 16.1 mph N/A   Haze
12:53 PM 75.9 °F 59.0 °F 56% 29.97 in 1.2 mi South 9.2 mph - N/A   Haze
1:13 PM 75.2 °F 60.8 °F 61% 29.97 in 2.5 mi South 9.2 mph 17.3 mph N/A   Haze
1:32 PM 77.0 °F 59.0 °F 54% 29.97 in 4.0 mi South 15.0 mph 19.6 mph N/A   Haze
1:53 PM 77.0 °F 59.0 °F 54% 29.94 in 6.0 mi South 16.1 mph - N/A   Haze
2:53 PM 79.0 °F 57.0 °F 47% 29.92 in 9.0 mi SSW 9.2 mph 17.3 mph N/A   Clear
3:53 PM 79.0 °F 57.0 °F 47% 29.89 in 10.0 mi SSE 15.0 mph - N/A   Clear
4:53 PM 79.0 °F 57.0 °F 47% 29.87 in 10.0 mi South 10.4 mph 21.9 mph N/A   Clear
5:53 PM 77.0 °F 57.0 °F 50% 29.88 in 10.0 mi South 6.9 mph - N/A   Clear
6:53 PM 73.9 °F 55.9 °F 53% 29.87 in 10.0 mi SSE 9.2 mph - N/A   Clear
7:53 PM 69.1 °F 57.0 °F 65% 29.86 in 10.0 mi South 6.9 mph - N/A   Clear
8:53 PM 71.1 °F 57.0 °F 61% 29.86 in 10.0 mi South 9.2 mph - N/A   Clear
9:53 PM 70.0 °F 57.0 °F 63% 29.87 in 10.0 mi South 6.9 mph - N/A   Clear
10:53 PM 70.0 °F 57.0 °F 63% 29.85 in 10.0 mi South 11.5 mph 20.7 mph N/A   Clear
11:53 PM 68.0 °F 55.9 °F 65% 29.84 in 10.0 mi SSW 12.7 mph 19.6 mph N/A   Clear